Погода Нижний Тагил

Погода Нижний Тагил : погода сейчас, прогноз погоды и архив. Всё, что Вы хотите узнать о погоде Нижний Тагил!

Хотите узнать прогноз погоды Нижний Тагил? Тогда Вам сюда: Погода Нижний Тагил

Поиск расширенной информации на нашем сайте:

Другие новости

Новости СМИ2

Главная страница сайта

Новости сайта

02.10.2013

Напоминаем, что на нашем новом сайте вы можете получить высокодетализированные прогнозы погоды по пунктам России, СНГ и мира (включающие важные для авиации метеовеличины, такие как направление и скорость ветра, видимость, явления погоды, количество и форма облачности, нижняя и верхняя граница облачности), а также ознакомиться с разнообразными материалами по авиационной метеорологии и подборкой полезных ссылок на эту тему.

Сайт Метеоцентр.Азия посвящён разработке технологий оптимизации авиаметеорологического обслуживания, включая проектирование и перспективное создание нескольких автоматизированных авиаметеорологических систем:
- система выпуска высокодетальных прогностических карт явлений погоды для нижнего воздушного пространства по России и ближнему зарубежью;
- система верификации прогнозов TAF (выпускаемых синоптиками официальных АМСГ РФ и ближнего зарубежья) и AUTOTAF (выпускаемых сайтом Метеоцентр.Азия) - выявление ошибок, онлайн-сопоставление с фактической погодой METAR, автоматическое внесение коррективов в прогнозы при резком отклонении фактической погоды от прогноза, подсчёт оправдываемости прогнозов по элементам и в целом;
- система обработки, анализа и отображения авиаметеорологической информации для применения провайдерами метеорологической информации.

Рекомендуем: Сравнить цены на лазерная гравировка.

Погода Нижний Тагил - сегодня

Время (UTC), дата Ветер
(°,м/с) 
Видим.   Явления Облачность Т
(°С)
Тd
(°С)
f(%) Тe
(°С)
Pmin
(гПа)
dP
(гПа)
Po
(мм)
O2
(г/м3)
Тmin Tmax R s Состояние
почвы
09 28.06.16 220 (ЮЗ) 20000 м  {дождь}  10/0 средняя 
[As trans]
+12.2 +10.4 89 +15  993.9  723  277           
12 28.06.16 330 (СЗ) 20000 м  в посл. час дождь  10/5 600 м средняя 
[Sc|As trans]
+14.7 +12.7 88 +21  994.4  0.8  723  274           
18 28.06.16 330 (СЗ) 20000 м  {дождь}  10/10 600 м кучево-дожд. 
[Cb cap]
+12.3 +9.5 83 +13  996.3  0.4  724  278           
21 28.06.16 320 (СЗ) 20000 м    10/10 600 м кучево-дожд. 
[Cb cap]
+9.7 +8.5 92 +9  997.2  0.7  725  281           
00 29.06.16 320 (СЗ) 20000 м    10/0 средняя 
[As trans]
+9.1 +7.7 91 +9  997.8  0.5  725  281           
03 29.06.16 320 (СЗ) 10 км  слаб. дождь  10/0 средняя 
[As trans]
+9.5 +8.1 91 +9  999.3  1.5  726  281  +9    0.5    влажная 
06 29.06.16 310 (СЗ) 20000 м  {дождь}  10/10 600 м кучево-дожд. 
[Cb cap]
+11.9 +9.6 86 +13  1000.3  1.2  727  279           
09 29.06.16 310 (СЗ) 20000 м    10/10 600 м кучево-дожд. 
[Cb cap]
+13.9 +10.9 82 +17  1001.6  1.5  728  277           
12 29.06.16 320 (СЗ) 20000 м    10/10 600 м кучево-дожд. 
[Cb cap]
+15.7 +11.5 76 +20  1002.6  1.2  729  276           
18 29.06.16 290 (З) 20000 м    10/10 600 м кучево-дожд. 
[Cb cap]
+13.2 +11 87 +16  1004.3  0.4  730  279           
21 29.06.16 270 (З) 20000 м    10/10 600 м 
[Sc]
+12.1 +10.3 89 +14  1004.5  730  280           
00 30.06.16 290 (З) 20000 м    10/10 600 м 
[Sc]
+11.8 +10.7 93 +16  1005.2  0.6  731  280           
03 30.06.16 330 (СЗ) 4000 м  слаб. дождь  10/8 600 м средняя 
[Sc|As op]
+13.4 +12 91 +17  1005.5  0.5  731  278  +11.4      влажная 
06 30.06.16 360 (С) 20000 м  {дождь}  10/10 600 м кучево-дожд. 
[Cb cap]
+14.3 +12.3 88 +19  1006.2  0.8  732  278           
09 30.06.16 350 (С) 20000 м  {ливн. осадки}  10/10 600 м кучево-дожд. 
[Cb cap]
+14.7 +12.6 87 +20  1006.7  0.5  732  277           
12 30.06.16 340 (С) 4000 м  дымка{ливн. осадки}  10/10 600 м кучево-дожд. 
[Cb cap]
+16.8 +13 78 +23  1007  0.5  733  275           
18 30.06.16 020 (С) 20000 м    9/9 600 м 
[Sc]
+15.6 +13.3 86 +22  1007.4  0.4  733  277           
21 30.06.16 360 (С) 20000 м    9/9 600 м 
[Sc]
+14.1 +12 87 +18  1008.1  0.4  733  279           
00 01.07.16 350 (С) 20000 м    10/10 600 м 
[Sc]
+13.6 +12.1 91 +18  1008.6  0.5  734  279           
03 01.07.16 340 (С) 4000 м  дымка  10/10 600 м 
[Sc]
+13.9 +12.4 91 +19  1008.7  0.1  734  279  +13.6        влажная 
06 01.07.16 330 (СЗ) 20000 м    10/10 600 м 
[Sc]
+15.9 +12.7 81 +21  1008.6  0.1  734  277           
09 01.07.16 340 (С) 20000 м    10/10 600 м 
[Sc]
+17.1 +12.7 75 +22  1008.7  0.3  734  276           
12 01.07.16 360 (С) 6{11}  20000 м    10/10 600 м кучево-дожд. 
[Cb cap]
+18.5 +13 70 +25  1008.2  -0.3  734  274           
18 01.07.16 350 (С) 20000 м    10/10 600 м кучево-дожд. 
[Cb cap]
+16.5 +13.6 83 +24  1009.1  0.3  734  276           
21 01.07.16 360 (С) 20000 м    10/10 600 м 
[Sc]
+16.9 +13.6 81 +24  1008.7  -0.4  734  276           
Время (UTC), дата Ветер
(°,м/с) 
Видим.   Явления Облачность Т
(°С)
Тd
(°С)
f(%) Тe
(°С)
Pmin
(гПа)
dP
(гПа)
Po
(мм)
O2
(г/м3)
Тmin Tmax R s Состояние
почвы

Для получения пояснительной информации подведите курсор к названию столбца.

ПОГОДА Нижний Тагил - архив

Всё, что Вы хотите узнать о погоде Нижний Тагил - удобно и подробно!

Выберите нужную дату (начиная с 1 января 2015* года) и нажмите кнопку "Найти".
Будут отображены архивные сводки погоды по пункту Нижний Тагил, начиная с указанной даты.


Отображать данные в формате CSV (для использования в таблицах Excel)


Внимание! Наш архив погоды предназначен исключительно для личного некоммерческого использования в познавательных целях. Если Вам необходимы официальные справки о состоянии погоды (для производственных, юридических, коммерческих и т.п. целей), обращайтесь в органы Росгидромета.

*Примечание: данная дата относится к архиву по метеостанциям СССР (Россия, СНГ, Балтия).
Архив по метеостанциям Зарубежной Европы и Азии (кроме Китая) хранится 10 дней, по другим регионам земного шара (Китай, Африка, Америка, Австралия, Океания) - 1 день.

Нижний Тагил - район местоположения метеостанции


Название, широта, долгота, высота метеостанции:
Нижний Тагил 57.9°ш. 60.1°д. 260 м над ур. моря [Российская Федерация]

Дополнительная информация

В oтличие oт бoльшинства пoгoдных сайтoв мы публикуем пoдрoбную метеoинфoрмацию в детальнoм прoфессиoнальнoм фoрмате.

Характеристики температуры и влажнoсти вoздуха измеряются на высoте 2 м в тени вдали oт зданий и деревьев.
Скoрoсть ветра измеряется на высoте 10 м (на урoвне рoста челoвека скoрoсть ветра ниже в 1.5-2 раза). Если метеoстанция нахoдится в гoрoде или в лесу, тo скoрoсть ветра занижена на 2-4 м/с пo сравнению с oткрытым местoм. Скoрoсть ветра над акватoриями крупных рек и oзёр, а также на вершинах хoлмoв на 2-5 м/с выше, чем в oбычных услoвиях.
Атмoсфернoе давление в разных тoчках местнoсти мoжет значительнo oтличаться oт давления на метеoстанции, в зависимoсти oт услoвий рельефа (при пoдъёме на 10 м давление пoнижается примернo на 1 мм рт.ст.).